{"data":{"norad_id":59575,"intl_designator":"2024-076M","name":"STARLINK-31510","alt_names":[],"object_type":"PAYLOAD","status":"ACTIVE","operator":null,"country":"US","launch_date":"2024-04-23","launch_site_code":"AFETR","launch_vehicle":null,"mission":null,"orbit_class":"UNKNOWN","rcs_meters":null,"size_class":null,"mass_kg":null,"dimensions":null,"purposes":["comms"],"wikipedia_slug":null,"has_3d_model":false,"image_url":null,"decayed_at":null,"tle_current":{"epoch":"2026-09-21T06:33:43.880256Z","epoch_age_seconds":101424,"freshness":"FRESH","line1":"1 59575U 24076M   26264.27342454 -.00000336  00000+0 -26385-5 0  9993","line2":"2 59575  42.9973 341.0708 0003063 162.2933 197.8026 15.27580822136450","mean_motion":15.27580822,"eccentricity":0.0003063,"inclination_deg":42.9973,"raan_deg":341.0708,"arg_perigee_deg":162.2933,"mean_anomaly_deg":197.8026,"bstar":-2.6385e-6,"rev_number":13645,"period_min":94.266697988174,"perigee_km":480.94505412974,"apogee_km":485.14821522435,"semimajor_km":6861.183634677,"source":"CELESTRAK","updated_at":"2026-09-22T09:00:49.002860Z"}}}